map of OUD home
Great Circle Mapper logo
OUD - Airport
Location
City:  Oujda, Morocco
Name:Les Anglades
ICAO / IATA:GMFO / OUD

Details
Type:Airport (Aerodrome, Airfield)
Use:Public/Civil, International (customs port of entry)
Latitude:3447'14"N (34.787150)
Longitude:155'26"W (-1.923985)
Datum:WGS 1984
Elevation:1535 ft (468 m)
Variation:0.6W (WMM2010 magnetic declination)
Runways:1
Longest:9843 × 148 ft (3000 × 45 m), paved

Time
Time Zone:UTC+0 (DST+1)
Local Time:

Weather
METAR:GMFO 262100Z 20004KT 160V220 9999 SCT026 SCT033 13/11 Q1011 NOSIG
TAF:GMFO 261700Z 2618/2800 31002KT 9999 SCT026 SCT033
BECMG 2702/2706 VRB03KT
BECMG 2712/2714 22006KT SCT020 BKN030
BECMG 2716/2720 20014KT

Related Locations
Nearby:
Farthest:NZOX: 12263 mi / 19735 km
Okiwi Station, NZ

Find:

   beyond  
but within

Other Information
Maps:
NOTAMs:
Links:
Sources:

  
flag of Morocco   

Sectional Chart

Flight Planning
at skyvector.com

Satellite Image

Google Maps Satellite View

 

Copyright © 2004-2014 Karl L. Swartz. All rights reserved.
The Great Circle Mapper name and logo are trademarks of the Great Circle Mapper.
All other trademarks mentioned herein belong to their respective owners.
Please see credits for attibutions and further copyright information.

  Follow gcmap on Facebook Follow gcmap on Twitter

hCard Microformat

Geo Microformat